Temp
88 92 85 78 68 73 73 78 89 84 84 92 90 79 76 76 75 61 79 80 79 77 83 87 82 83 83 83 83 83 84 84 84 84 84 84 84 84 84 84 85 85 85 85 85 85 84 84 84
91 91 86 80 68 75 71 86 83 87 91 93 91 88 80 70 86 79 82 84 82 86 88 91 81 83 83 84 84 84 84 84 84 84 84 84 85 84 84 85 85 85 84 85 85 85 84 84 84
89 89 75 74 75 73 70 85 86 89 92 89 87 88 88 79 87 85 90 92 87 91 91 88 82 83 84 84 84 84 84 84 84 84 84 84 85 85 85 85 85 85 85 85 85 85 85 84 84
88 86 87 72 76 83 84 88 89 88 91 92 91 82 90 92 88 95 95 93 93 92 92 85 83 84 84 84 84 84 84 84 84 84 85 84 85 85 85 85 84 85 85 85 85 85 85 85 84
95 89 65 79 79 86 90 91 91 88 89 90 90 80 81 89 91 94 95 95 96 94 91 91 84 84 84 84 84 84 84 84 84 84 85 85 85 85 85 85 85 85 85 85 85 85 85 84 84
87 82 65 70 79 86 90 93 91 90 90 89 87 81 81 90 92 92 96 95 98 93 91 90 84 84 84 85 84 84 83 84 84 84 85 85 85 85 85 85 85 85 85 85 85 85 84 84 84
82 66 80 79 80 82 87 93 90 89 89 89 93 80 85 86 91 95 95 96 98 97 93 91 91 86 83 83 83 84 84 84 84 85 85 85 85 84 85 85 85 85 85 85 85 84 84 84 84
91 83 80 81 77 79 89 91 92 91 88 97 96 79 81 86 91 95 95 97 98 96 91 92 97 93 92 91 84 84 84 84 84 84 84 85 85 85 85 84 85 85 85 85 85 85 84 84 84
97 62 79 80 78 84 92 88 93 96 91 93 94 91 94 97 99 94 93 97 97 94 95 93 96 96 88 88 87 85 84 84 84 85 84 86 87 87 89 86 85 85 85 85 85 85 85 84 84
82 60 79 89 89 88 91 90 90 90 88 89 91 94 96 97 97 94 93 94 95 96 98 96 95 98 97 90 88 88 91 92 90 91 88 91 90 92 93 89 85 85 85 85 85 85 85 85 93
87 81 90 91 93 93 92 90 94 91 85 90 86 88 93 95 95 96 96 97 97 98 98 97 98 97 97 90 90 93 93 86 95 92 93 93 94 87 83 91 87 89 84 86 85 85 86 86 84
84 86 92 91 92 93 89 93 91 91 91 96 94 94 93 93 96 96 97 98 98 98 97 98 99 96 97 97 95 91 89 97 91 94 91 92 89 89 93 85 82 84 87 88 86 82 80 86 85
92 91 90 92 89 93 94 90 90 91 95 97 96 95 93 95 96 98 99 100 100 98 98 99 97 93 94 93 96 96 98 97 96 96 93 90 85 90 84 93 93 92 86 89 91 89 88 83 81
95 93 93 92 91 93 89 89 91 93 97 95 94 94 96 96 97 97 98 98 99 99 98 100 97 93 95 93 93 95 96 98 94 89 89 93 88 89 82 94 93 89 87 88 85 82 79 80 83
98 89 91 91 91 90 94 84 87 94 96 93 93 95 96 97 98 96 98 98 99 100 100 99 97 96 93 92 91 93 97 99 98 91 96 93 93 88 89 89 93 87 83 80 77 80 81 77 79
93 94 82 91 92 93 87 75 89 95 94 91 93 94 94 96 98 98 99 100 100 100 97 98 100 99 95 94 92 96 98 97 88 94 88 94 93 92 91 83 94 90 90 81 81 82 77 81 82
95 85 86 85 93 91 88 82 91 95 94 92 93 94 94 95 97 98 100 100 100 100 97 96 97 97 95 93 94 96 96 96 92 97 88 91 95 94 91 87 87 91 87 84 85 81 84 84 84
83 86 88 85 89 91 87 86 91 94 94 93 94 95 94 95 97 99 100 101 101 99 97 95 96 95 94 94 93 96 97 97 97 97 94 95 87 94 92 86 92 92 92 86 85 81 82 81 82
92 89 88 91 93 89 87 87 88 93 94 93 94 95 95 96 99 100 101 101 101 99 96 94 94 93 93 93 92 93 93 96 96 98 96 94 94 93 90 91 93 92 91 87 88 86 86 84 91
92 90 88 92 95 91 89 87 90 92 93 95 94 95 95 97 99 99 100 101 101 98 96 93 93 92 92 94 94 96 96 98 98 98 96 95 93 93 91 90 92 90 88 84 86 84 82 80 84
93 89 88 88 93 94 90 77 86 91 94 95 97 98 98 97 98 99 99 100 100 98 96 94 92 92 91 93 95 94 94 93 95 94 95 95 93 93 92 91 90 91 90 83 85 87 84 82 80
88 94 92 90 89 81 94 49 77 88 89 92 95 96 97 98 100 100 101 100 101 100 99 97 94 92 92 92 94 91 91 91 95 95 97 96 93 93 93 91 92 90 93 89 84 85 86 85 84
90 95 93 92 89 91 88 74 84 90 86 89 93 95 97 97 100 101 102 102 103 102 101 99 95 92 93 91 91 93 89 95 97 97 90 91 92 92 93 91 91 91 92 89 89 88 88 91 87
97 93 94 94 92 75 87 76 62 86 89 91 94 96 97 98 98 101 103 103 102 103 102 100 95 92 91 92 90 90 91 90 94 94 93 96 97 93 91 93 90 91 92 90 91 89 89 87 87
94 90 80 78 79 54 88 63 58 93 96 98 95 96 98 99 96 98 101 102 101 101 101 101 95 91 91 91 91 90 90 90 90 91 93 95 96 97 89 91 90 91 90 91 91 88 88 88 87
92 92 82 69 73 70 89 72 63 96 101 100 102 100 99 99 98 99 101 102 101 101 101 101 97 91 92 91 90 90 90 93 92 92 95 97 97 98 93 91 93 92 91 91 90 91 92 89 90
91 86 97 87 89 82 71 82 86 97 98 99 101 100 98 99 99 97 102 102 101 102 101 100 98 94 93 95 91 90 90 90 93 94 93 96 96 98 94 93 91 92 91 90 89 92 89 89 88
94 98 86 88 72 71 66 75 62 86 89 95 97 98 99 100 99 99 102 103 104 104 104 103 101 98 96 96 93 92 91 90 91 93 92 94 96 94 94 91 91 91 91 90 88 91 88 87 89
91 89 91 93 88 77 75 75 89 88 89 91 96 100 101 101 101 101 101 104 104 105 105 105 103 100 97 96 95 93 92 92 91 92 92 92 94 94 91 91 90 90 89 89 88 88 87 85 86
96 92 93 84 79 86 83 74 93 91 93 93 92 97 100 103 103 104 103 103 103 103 103 102 102 101 98 95 94 93 94 93 94 92 93 93 91 93 91 90 90 90 91 88 87 87 90 85 84
MSLP
1009.65 1009.31 1009.63 1009.38 1008.32 1005.30 1004.13 1003.47 1003.08 1003.22 1003.57 1004.31 1005.64 1007.37 1008.66 1009.97 1010.29 1013.20 1014.69 1015.32 1015.81 1015.89 1015.68 1015.54 1015.92 1015.97 1016.12 1016.23 1016.25 1016.50 1016.72 1016.77 1016.89 1016.98 1017.04 1017.09 1017.27 1017.42 1017.56 1017.58 1017.55 1017.68 1017.70 1017.90 1018.05 1018.22 1018.35 1018.34 1018.42
1008.85 1008.81 1008.92 1007.83 1005.79 1003.22 1003.59 1002.83 1002.88 1003.31 1004.16 1004.85 1005.66 1006.68 1008.02 1010.21 1010.64 1012.83 1013.37 1014.69 1015.34 1015.16 1015.17 1015.46 1016.35 1016.21 1016.26 1016.51 1016.64 1016.82 1016.89 1017.05 1017.15 1017.27 1017.30 1017.56 1017.51 1017.75 1017.88 1017.90 1017.91 1018.06 1018.16 1018.25 1018.30 1018.51 1018.62 1018.57 1018.62
1008.99 1008.66 1008.36 1005.78 1003.93 1003.06 1003.35 1003.27 1003.78 1004.34 1004.51 1004.94 1005.88 1006.99 1007.03 1009.48 1010.93 1012.22 1012.81 1013.43 1014.51 1014.32 1015.14 1016.03 1016.46 1016.31 1016.54 1016.81 1017.02 1017.13 1017.19 1017.28 1017.36 1017.47 1017.64 1017.81 1017.77 1017.93 1018.15 1018.21 1018.25 1018.41 1018.42 1018.57 1018.69 1018.77 1018.83 1018.85 1018.89
1008.17 1007.52 1006.22 1004.47 1003.34 1002.82 1002.71 1003.41 1004.03 1004.31 1004.78 1005.38 1006.06 1007.27 1008.42 1009.92 1010.73 1010.92 1012.69 1013.31 1013.62 1013.77 1014.77 1016.30 1016.56 1016.48 1016.84 1017.06 1017.26 1017.46 1017.53 1017.54 1017.63 1017.75 1017.87 1018.06 1018.00 1018.14 1018.39 1018.46 1018.55 1018.65 1018.74 1018.87 1018.99 1019.04 1019.10 1019.08 1019.08
1007.22 1005.66 1005.23 1003.27 1003.28 1003.10 1003.32 1003.52 1003.62 1003.95 1004.77 1005.16 1006.13 1008.01 1009.49 1010.44 1011.15 1011.91 1012.46 1012.93 1013.12 1013.85 1015.10 1016.05 1016.63 1016.93 1017.20 1017.22 1017.63 1017.77 1017.76 1017.80 1017.88 1018.02 1018.10 1018.23 1018.21 1018.42 1018.58 1018.59 1018.67 1018.70 1018.90 1019.04 1019.19 1019.21 1019.29 1019.25 1019.27
1005.73 1004.94 1005.46 1003.68 1003.51 1003.46 1003.47 1003.71 1003.87 1004.28 1005.01 1005.71 1006.59 1008.68 1009.92 1011.03 1011.58 1012.35 1012.52 1012.83 1013.21 1014.27 1015.14 1016.12 1016.92 1017.25 1017.43 1017.48 1017.85 1017.95 1018.15 1018.09 1018.14 1018.26 1018.33 1018.43 1018.51 1018.58 1018.75 1018.84 1018.82 1018.90 1019.07 1019.21 1019.32 1019.36 1019.42 1019.43 1019.43
1005.20 1004.76 1003.61 1003.50 1003.42 1003.49 1003.88 1004.01 1003.92 1004.52 1004.96 1005.53 1006.56 1008.39 1009.97 1010.87 1011.79 1012.18 1012.66 1012.62 1012.96 1014.25 1015.01 1015.76 1016.51 1017.17 1017.54 1017.80 1018.01 1018.09 1018.26 1018.34 1018.34 1018.48 1018.56 1018.62 1018.65 1018.65 1018.82 1018.87 1018.91 1019.03 1019.14 1019.27 1019.37 1019.45 1019.49 1019.50 1019.47
1004.09 1003.20 1003.17 1003.27 1003.21 1003.62 1004.10 1004.38 1004.67 1004.61 1005.49 1005.82 1006.31 1008.28 1009.51 1010.90 1011.60 1012.12 1012.38 1012.50 1013.02 1014.35 1015.47 1015.32 1015.35 1016.30 1016.84 1017.45 1018.03 1018.21 1018.35 1018.58 1018.52 1018.70 1018.72 1018.71 1018.59 1018.66 1018.65 1018.69 1018.74 1018.90 1019.03 1019.14 1019.24 1019.33 1019.44 1019.46 1019.44
1004.42 1005.81 1002.87 1002.89 1003.01 1003.36 1004.00 1004.51 1005.24 1005.69 1005.98 1006.35 1006.51 1007.83 1008.93 1009.98 1010.60 1011.84 1012.00 1012.21 1012.86 1014.05 1014.59 1015.17 1015.08 1015.41 1016.56 1017.14 1017.81 1018.28 1018.45 1018.56 1018.60 1018.61 1018.67 1018.47 1018.01 1018.21 1018.13 1018.30 1018.47 1018.68 1018.81 1018.92 1019.00 1019.09 1019.15 1019.11 1019.15
1004.21 1005.46 1003.32 1002.58 1002.59 1003.08 1003.85 1004.59 1005.27 1005.11 1005.84 1006.38 1006.94 1008.20 1009.25 1009.86 1010.22 1010.79 1011.53 1011.70 1012.46 1012.90 1013.38 1014.29 1014.81 1014.86 1015.44 1016.59 1017.40 1017.68 1017.60 1017.60 1017.68 1017.52 1017.98 1017.53 1017.39 1017.36 1017.51 1017.94 1018.34 1018.43 1018.60 1018.63 1018.67 1018.82 1018.83 1018.71 1017.68
1003.44 1003.56 1002.70 1003.09 1003.30 1003.45 1003.82 1004.63 1004.99 1004.58 1005.57 1006.30 1007.44 1008.52 1009.30 1009.76 1010.05 1010.30 1010.83 1011.28 1012.01 1012.49 1013.19 1014.15 1014.31 1014.77 1015.33 1015.77 1016.64 1016.68 1016.80 1016.91 1016.65 1017.24 1017.18 1016.86 1016.85 1017.52 1017.82 1017.55 1017.58 1017.64 1017.98 1018.13 1018.38 1018.45 1018.27 1018.16 1018.00
1002.99 1003.87 1003.18 1003.70 1003.97 1003.55 1003.95 1004.37 1004.49 1004.58 1005.60 1006.56 1007.58 1008.52 1009.21 1009.53 1009.58 1010.07 1010.43 1010.99 1011.61 1012.30 1013.14 1014.02 1014.23 1014.70 1014.98 1015.41 1015.84 1015.84 1016.04 1015.87 1016.36 1016.63 1017.41 1017.04 1017.21 1017.07 1016.90 1017.21 1017.45 1017.25 1017.21 1017.27 1017.87 1018.25 1018.26 1018.12 1018.13
1001.67 1002.82 1003.70 1003.87 1004.30 1003.87 1004.09 1004.35 1004.53 1005.18 1006.09 1006.91 1007.62 1008.35 1008.91 1009.19 1009.44 1009.71 1010.16 1010.82 1011.49 1012.24 1012.91 1013.47 1014.23 1015.34 1015.28 1015.63 1015.46 1015.54 1015.58 1016.01 1015.83 1016.45 1016.89 1016.99 1017.34 1016.84 1017.22 1016.92 1016.70 1016.60 1016.83 1017.19 1017.47 1017.84 1017.84 1018.41 1018.52
1001.81 1002.26 1002.86 1003.70 1003.96 1003.78 1004.03 1004.39 1004.57 1005.31 1006.20 1006.96 1007.59 1007.99 1008.44 1008.76 1009.25 1009.68 1010.10 1010.60 1011.15 1011.90 1012.57 1013.10 1014.11 1015.37 1015.46 1015.85 1015.94 1015.94 1015.95 1015.66 1015.95 1016.28 1016.66 1016.94 1016.90 1016.76 1017.34 1016.62 1016.27 1016.60 1017.10 1017.58 1017.93 1018.25 1018.59 1018.56 1018.60
1001.20 1001.71 1002.26 1003.10 1003.47 1003.36 1003.04 1003.65 1004.02 1005.02 1005.85 1006.70 1007.26 1007.70 1008.11 1008.58 1009.08 1009.71 1010.17 1010.71 1011.16 1011.78 1012.54 1013.15 1014.09 1014.88 1015.61 1015.98 1016.42 1016.26 1015.64 1015.47 1015.44 1016.07 1016.26 1016.76 1016.69 1016.75 1016.96 1016.79 1016.21 1016.27 1017.12 1017.99 1018.39 1018.27 1018.38 1018.80 1018.57
1000.19 1000.04 1000.67 1001.84 1002.70 1002.36 1002.92 1003.08 1003.77 1004.92 1005.40 1006.18 1006.77 1007.30 1007.96 1008.40 1008.90 1009.63 1010.24 1010.55 1011.20 1011.68 1012.55 1013.30 1013.84 1014.37 1015.34 1015.65 1016.10 1015.60 1015.16 1015.20 1015.87 1015.92 1016.23 1016.46 1016.72 1016.90 1016.79 1016.84 1016.15 1016.68 1016.97 1017.59 1017.80 1017.98 1018.36 1018.51 1018.27
998.25 998.52 999.43 1001.12 1001.97 1002.20 1002.56 1002.32 1003.49 1004.57 1004.97 1005.36 1006.24 1006.85 1007.52 1008.14 1008.66 1009.38 1010.05 1010.41 1011.00 1011.65 1012.70 1013.39 1013.94 1014.20 1014.91 1015.43 1015.62 1015.40 1015.26 1015.58 1015.53 1015.45 1015.92 1015.88 1016.25 1016.53 1016.84 1016.59 1016.17 1016.50 1016.67 1017.06 1017.29 1017.70 1017.77 1017.75 1017.95
998.65 998.34 998.73 999.66 1001.27 1001.68 1002.10 1002.11 1003.18 1003.94 1004.22 1004.52 1005.44 1006.23 1006.99 1007.49 1008.08 1009.04 1009.55 1010.11 1010.82 1011.74 1012.82 1013.51 1014.00 1014.34 1014.81 1015.42 1015.62 1015.26 1015.04 1015.12 1015.26 1015.41 1015.46 1015.91 1016.25 1016.30 1016.67 1016.33 1016.26 1016.44 1016.10 1016.44 1017.12 1017.64 1017.75 1017.68 1017.20
998.73 998.41 998.27 999.27 1000.45 1000.89 1001.23 1001.79 1002.72 1003.43 1003.68 1003.84 1004.64 1005.41 1006.31 1006.73 1007.51 1008.35 1009.08 1009.95 1010.55 1011.65 1012.61 1013.42 1013.89 1014.48 1014.93 1015.08 1015.27 1014.99 1014.83 1014.83 1015.07 1015.16 1015.61 1016.19 1015.97 1016.28 1016.72 1015.97 1016.06 1016.30 1016.41 1017.10 1017.31 1017.37 1017.34 1017.15 1016.87
998.34 997.71 997.94 998.78 999.46 1000.03 1000.79 1001.55 1002.36 1002.63 1002.93 1003.11 1003.97 1004.59 1005.46 1006.04 1006.73 1007.70 1008.74 1009.41 1010.26 1011.26 1012.21 1013.16 1013.74 1014.42 1014.96 1014.95 1014.85 1014.58 1014.63 1014.52 1014.72 1014.92 1015.43 1016.11 1016.21 1016.26 1016.58 1016.61 1016.33 1016.60 1016.69 1017.42 1017.52 1017.67 1017.60 1017.32 1017.24
997.68 997.99 998.43 998.43 998.53 999.56 1000.32 1002.10 1001.91 1002.47 1002.46 1002.72 1003.45 1004.02 1004.71 1005.38 1005.85 1006.97 1008.00 1008.74 1009.72 1010.69 1011.75 1012.61 1013.47 1014.07 1014.70 1014.61 1014.88 1015.02 1015.14 1015.26 1015.12 1015.45 1015.62 1015.63 1016.04 1016.18 1016.27 1016.52 1016.61 1016.73 1016.72 1017.15 1017.52 1017.53 1017.67 1017.59 1017.36
997.48 998.57 998.56 998.21 997.70 997.62 998.74 1002.46 1001.57 1001.43 1001.74 1002.19 1002.68 1003.30 1003.96 1004.77 1005.56 1006.15 1007.07 1008.09 1008.90 1009.89 1011.08 1011.98 1013.02 1013.61 1014.27 1014.69 1014.37 1014.76 1014.82 1014.75 1014.72 1014.95 1014.85 1015.25 1016.06 1016.14 1016.25 1016.52 1016.43 1016.81 1016.32 1016.96 1017.29 1017.40 1017.48 1017.48 1017.07
998.49 998.90 998.53 998.12 997.52 996.74 997.80 998.96 999.90 1000.28 1000.59 1001.07 1001.79 1002.61 1003.43 1004.19 1004.93 1005.36 1006.32 1007.22 1008.03 1009.15 1010.13 1011.16 1012.31 1013.13 1013.64 1014.24 1014.49 1014.55 1014.97 1014.39 1014.58 1014.58 1015.31 1015.71 1015.98 1016.27 1016.18 1016.50 1016.53 1016.74 1016.57 1016.98 1017.11 1017.21 1017.27 1016.83 1016.72
999.28 998.79 997.78 997.18 996.71 997.43 997.73 999.42 1001.21 999.22 999.22 999.98 1000.91 1001.66 1002.74 1003.70 1004.53 1005.02 1005.69 1006.62 1007.69 1008.46 1009.47 1010.31 1011.60 1012.63 1013.41 1013.87 1014.39 1014.54 1014.47 1014.64 1014.34 1014.55 1014.81 1014.79 1015.01 1015.99 1016.34 1016.12 1016.51 1016.57 1016.42 1016.82 1016.94 1017.22 1017.33 1017.40 1017.40
998.96 997.86 996.05 995.73 995.75 999.11 998.56 1001.01 1001.75 998.50 998.35 998.41 999.64 1000.78 1001.96 1003.15 1004.30 1004.84 1005.23 1006.13 1007.07 1007.79 1008.83 1009.72 1011.03 1012.12 1012.88 1013.41 1013.87 1014.35 1014.57 1014.77 1014.75 1014.82 1014.75 1014.29 1014.62 1014.78 1015.88 1016.11 1016.29 1016.41 1016.67 1016.61 1016.82 1017.21 1017.28 1017.37 1017.40
997.72 997.21 995.97 995.55 995.61 998.01 997.83 1000.22 1001.04 998.63 998.40 998.59 998.72 1000.12 1001.44 1002.47 1003.89 1004.77 1005.01 1005.62 1006.64 1007.40 1008.29 1009.23 1010.37 1011.57 1012.27 1012.81 1013.29 1013.80 1014.20 1014.38 1014.68 1014.74 1014.32 1014.32 1014.22 1014.45 1015.22 1015.91 1015.77 1015.96 1016.47 1016.62 1016.81 1016.82 1016.94 1017.29 1017.35
997.79 997.21 996.75 996.24 995.76 996.67 998.95 999.46 999.74 999.66 999.02 998.75 998.74 999.67 1000.97 1002.01 1003.14 1004.31 1004.59 1005.21 1006.01 1006.94 1007.82 1008.77 1009.68 1010.87 1011.59 1012.10 1012.83 1013.26 1013.80 1014.06 1013.95 1014.05 1014.55 1014.50 1014.55 1014.41 1015.08 1015.41 1015.93 1015.79 1016.18 1016.51 1016.78 1016.57 1017.04 1017.31 1017.47
998.35 997.52 996.53 996.08 995.92 996.67 999.23 999.59 1001.73 1000.69 1000.22 999.53 999.32 999.78 1000.54 1001.61 1002.69 1003.71 1004.06 1004.66 1005.44 1006.37 1007.21 1008.05 1008.92 1009.84 1010.71 1011.27 1012.08 1012.70 1013.13 1013.67 1013.86 1013.91 1014.11 1014.13 1014.25 1014.69 1014.84 1015.38 1015.66 1015.86 1016.09 1016.38 1016.72 1016.48 1016.97 1017.27 1017.18
997.73 997.47 996.77 995.83 996.22 996.39 997.72 1000.03 1000.95 1001.14 1001.12 1000.84 1000.44 999.98 1000.26 1001.22 1002.03 1002.86 1003.79 1004.18 1004.83 1005.52 1006.22 1007.01 1008.01 1008.86 1009.84 1010.57 1011.10 1011.86 1012.41 1012.98 1013.55 1013.63 1013.77 1014.06 1014.24 1014.39 1014.95 1015.19 1015.42 1015.61 1015.91 1016.30 1016.56 1016.57 1016.78 1017.08 1017.12
997.38 996.57 996.21 995.78 996.55 997.04 997.73 1000.71 1001.53 1001.98 1001.82 1002.06 1002.17 1001.55 1000.91 1000.76 1001.48 1002.13 1002.92 1003.84 1004.28 1004.90 1005.50 1006.24 1007.00 1008.04 1009.12 1009.91 1010.62 1011.22 1011.79 1012.24 1012.56 1013.05 1013.23 1013.51 1013.82 1014.09 1014.41 1014.84 1015.07 1015.24 1015.45 1015.83 1016.21 1016.36 1016.08 1016.65 1016.76
Wind_Speed
13 11 3 2 5 5 13 14 14 13 12 17 19 8 13 10 7 12 15 13 14 10 10 12 12 15 15 15 15 14 13 12 10 13 13 13 14 14 13 13 15 14 14 15 15 14 15 13 13
11 10 5 6 7 11 8 13 17 16 14 13 13 18 11 6 12 15 15 21 16 15 12 14 12 15 16 14 14 13 13 12 11 11 13 12 13 13 12 13 13 13 13 12 13 13 11 12 12
13 7 4 5 5 9 9 13 14 14 8 12 8 10 5 11 17 21 16 19 19 16 14 14 13 15 15 13 13 12 12 11 10 11 11 11 11 12 11 11 11 11 12 11 11 11 11 11 12
5 6 8 4 13 13 16 14 11 10 7 8 17 13 23 22 18 15 22 18 16 14 20 14 14 15 13 12 11 11 10 10 10 9 10 10 10 11 11 11 11 11 10 10 9 9 9 9 10
10 7 4 9 15 15 14 9 6 10 8 10 21 20 12 15 19 19 17 18 15 16 16 16 12 12 11 12 11 10 10 9 9 8 8 8 9 9 8 8 9 10 8 8 7 8 8 7 8
6 5 5 5 13 12 9 12 8 11 9 8 24 19 9 26 20 19 16 16 16 17 14 15 12 11 11 11 10 10 9 8 9 7 7 7 7 7 6 6 7 7 6 6 5 6 6 5 5
17 5 9 14 11 12 11 3 11 8 11 13 18 18 12 21 20 19 16 15 19 16 14 14 14 12 10 9 10 10 8 7 7 7 6 6 5 4 4 4 5 4 4 3 3 3 3 4 3
10 5 8 7 10 12 7 13 4 8 13 7 20 10 20 19 20 18 16 16 16 17 14 9 16 13 10 11 9 8 8 7 6 5 4 5 6 7 7 6 7 5 3 3 3 3 4 4 4
1 6 7 10 5 12 9 12 7 11 12 10 5 23 23 22 24 19 13 16 17 17 18 15 10 14 11 11 10 9 8 7 6 8 8 9 4 7 10 8 8 5 4 5 5 6 4 8 9
10 7 6 14 7 13 11 10 10 10 7 10 16 22 23 20 19 22 17 16 15 16 15 14 14 11 13 11 12 8 10 10 9 7 9 9 10 7 5 6 7 7 6 8 9 8 9 11 6
7 7 8 10 6 8 12 12 9 9 10 14 19 22 22 20 17 17 18 15 16 15 11 12 11 10 10 8 7 6 8 5 6 3 5 1 1 2 2 3 4 5 10 2 9 8 6 7 4
7 1 6 7 4 6 8 6 10 7 12 15 20 22 20 19 17 17 16 16 15 14 14 14 13 7 9 7 8 5 5 4 4 7 6 3 1 4 4 2 6 7 2 5 2 3 3 4 5
5 10 4 4 4 9 7 6 10 12 14 17 20 20 19 17 15 15 15 14 15 15 14 15 14 8 6 3 5 2 2 5 5 6 8 1 4 6 3 2 4 4 6 2 2 4 4 3 1
5 4 7 7 8 8 11 9 9 13 17 18 18 18 18 17 16 14 13 13 14 13 13 13 13 11 8 7 2 2 5 4 5 2 5 5 4 2 3 3 5 2 4 3 2 2 2 3 1
9 11 8 11 10 9 14 15 12 15 19 17 17 15 16 15 16 14 13 13 12 12 13 13 11 13 10 8 7 6 6 6 5 3 5 4 5 1 1 4 6 3 6 3 1 5 4 5 5
14 11 11 14 14 8 10 12 11 16 17 17 18 16 15 16 16 16 14 14 14 13 13 12 11 14 12 10 8 8 6 5 3 6 4 7 5 5 6 3 3 6 4 1 3 4 2 4 4
1 7 12 10 12 8 12 11 15 19 17 17 17 17 16 16 17 15 16 14 15 12 13 11 10 10 13 9 8 7 5 4 4 3 3 5 3 4 5 5 3 5 3 2 1 2 4 6 6
7 6 8 14 11 10 13 10 16 18 18 17 18 18 17 17 18 17 17 14 15 12 12 11 11 9 10 9 6 7 6 7 4 4 3 5 2 1 3 3 3 6 4 3 5 4 5 4 5
6 3 8 11 12 12 10 12 15 17 16 16 17 19 18 18 18 20 16 16 13 14 13 12 11 10 8 7 8 7 7 5 4 4 3 2 4 1 3 5 2 5 5 6 2 1 0 2 2
6 8 7 8 11 12 10 10 14 18 17 17 17 18 19 19 20 19 18 17 17 15 14 13 12 12 10 8 7 6 4 4 4 4 4 1 3 3 5 4 2 3 6 5 1 1 2 3 5
5 10 7 10 4 11 8 11 16 16 17 15 17 16 18 19 20 20 20 19 17 17 15 14 13 13 12 10 7 4 4 3 3 4 5 6 4 3 2 2 4 1 4 3 2 2 3 3 4
5 5 7 9 14 8 6 14 30 20 17 17 17 16 17 19 18 21 21 19 18 16 16 15 14 14 13 12 8 7 6 6 7 5 5 3 1 3 2 3 2 1 4 4 5 4 2 2 3
11 8 11 14 16 18 7 11 13 18 19 19 18 18 16 17 20 20 21 20 18 17 16 15 14 13 12 13 11 8 8 6 4 5 6 2 4 4 3 3 2 3 6 4 2 2 2 3 3
9 13 19 17 16 10 4 18 19 13 13 18 20 19 19 18 17 18 19 19 16 16 15 15 14 12 13 12 13 10 7 8 5 6 4 6 6 7 5 4 2 2 1 3 3 2 1 5 6
10 19 14 12 7 11 12 18 19 12 4 14 20 19 20 19 18 17 18 18 17 17 17 14 14 14 14 15 14 13 11 9 8 5 7 3 4 5 9 5 4 4 3 1 1 2 2 1 3
10 13 11 4 7 3 5 11 11 8 6 1 16 19 18 19 18 19 18 17 17 17 17 15 15 14 15 15 14 12 11 9 9 9 7 7 5 5 10 6 4 4 4 3 3 5 4 5 2
16 12 11 12 6 9 3 24 20 17 14 7 11 16 18 18 19 18 18 17 18 17 15 15 14 15 15 16 13 12 11 11 10 8 9 6 3 1 6 6 6 5 6 5 4 3 3 2 3
16 13 10 10 3 7 11 15 10 6 13 12 7 9 15 17 18 19 16 18 16 17 17 17 17 16 15 15 14 13 13 12 11 8 9 8 7 7 4 7 7 7 6 7 6 4 6 4 4
11 13 11 10 8 7 4 12 12 11 11 11 11 2 12 15 17 18 17 17 18 17 18 18 16 16 14 14 13 12 13 13 12 12 11 10 10 8 8 8 8 9 8 8 7 6 7 6 5
13 14 9 8 8 3 9 8 12 11 13 10 10 10 12 12 14 16 19 18 16 17 15 14 16 15 14 11 10 12 13 12 14 13 13 11 11 11 10 10 10 10 10 9 9 9 7 8 7
Wind_Direction
193 202 234 280 244 214 65 85 105 115 78 97 89 135 94 50 53 123 138 149 143 178 166 131 113 119 117 114 111 110 113 106 101 100 96 100 107 105 108 107 99 93 92 92 96 91 81 76 77
199 198 218 270 258 87 73 69 64 68 97 97 110 126 103 80 98 118 158 142 158 160 149 132 128 123 121 118 114 121 116 114 109 103 100 101 108 109 110 107 98 93 90 89 93 97 88 75 80
250 192 246 224 48 82 100 72 82 95 123 96 104 66 58 100 121 143 147 144 160 149 134 120 125 119 119 123 128 124 120 116 113 104 106 106 105 112 115 109 98 92 97 90 88 84 85 85 80
190 221 231 269 81 69 82 90 107 110 75 94 104 91 93 116 139 123 145 150 163 147 125 129 129 123 123 128 127 126 124 122 112 110 107 108 99 105 113 104 105 104 91 90 87 88 87 86 86
230 266 300 109 80 78 81 83 117 94 97 137 107 113 96 96 113 125 139 152 138 120 117 132 123 125 132 126 132 133 128 128 119 119 110 104 102 107 103 108 115 108 104 106 103 100 92 86 79
233 346 175 107 98 100 101 68 63 84 93 100 103 109 114 116 128 139 162 146 150 123 143 132 131 141 142 140 137 131 130 124 123 112 109 111 105 105 110 110 106 105 109 105 105 110 107 97 81
241 237 76 89 106 93 80 146 64 105 126 138 134 121 133 125 138 145 166 163 133 133 128 145 149 136 135 138 144 139 129 127 122 122 116 112 120 114 137 129 121 116 114 128 136 130 132 136 124
280 235 114 126 111 108 121 81 75 97 89 102 115 143 144 146 149 149 169 144 135 142 149 179 148 162 159 154 146 148 144 152 142 149 150 180 174 194 192 192 170 157 169 181 194 192 187 178 184
83 340 142 92 108 121 131 113 78 103 139 155 57 135 139 147 150 155 161 152 152 149 169 162 182 161 156 149 154 167 168 168 173 187 203 221 226 203 162 119 141 176 220 207 208 205 209 210 207
128 203 107 107 130 117 119 105 133 133 128 128 104 121 133 151 159 149 175 159 154 166 161 157 163 169 155 172 144 187 177 185 202 191 192 214 226 196 118 127 174 193 224 235 222 214 224 234 214
339 21 65 75 61 151 117 135 162 135 125 145 136 144 149 157 168 160 165 167 166 166 162 163 166 170 157 122 158 172 201 195 162 197 238 76 115 18 242 192 182 181 204 224 228 203 241 304 239
120 354 8 108 129 143 146 143 135 68 113 135 142 150 154 166 171 164 169 168 166 166 164 174 155 199 158 171 196 187 199 158 138 174 204 260 206 263 206 183 174 214 152 179 174 338 126 281 3
86 147 165 90 145 197 135 169 125 109 127 136 146 153 163 170 174 166 168 167 167 168 171 172 147 177 164 223 191 198 169 215 150 172 188 271 179 237 126 260 291 290 194 176 188 254 147 109 30
80 133 165 159 170 154 180 162 176 137 142 147 155 163 168 171 176 163 174 166 170 171 168 163 153 163 187 203 189 188 218 209 127 221 136 201 244 249 132 294 268 5 73 345 226 205 19 38 284
149 161 179 167 176 182 186 165 197 153 152 157 165 169 162 169 173 168 175 173 184 175 160 155 175 164 179 185 177 223 197 188 192 157 155 222 284 194 238 277 287 89 91 101 103 222 148 199 204
211 218 171 147 171 192 183 170 171 164 166 168 168 171 166 167 168 168 174 181 177 178 158 164 187 166 175 179 180 210 219 166 150 199 165 186 231 278 287 276 258 33 336 178 194 200 174 252 186
311 86 127 144 186 159 219 126 165 167 179 176 174 172 176 170 167 168 164 179 161 173 160 183 184 185 159 165 183 234 170 241 223 212 213 178 221 263 263 301 4 10 289 148 202 160 213 176 204
22 360 75 129 174 195 212 114 164 175 194 180 178 177 184 179 182 173 169 182 157 156 163 184 175 179 164 161 215 214 209 224 212 227 212 64 313 222 272 250 6 308 290 55 96 166 197 203 222
294 312 91 96 150 191 189 153 170 181 197 180 182 180 187 187 183 166 185 171 167 161 165 177 183 170 185 190 198 217 219 202 219 239 82 316 286 45 267 300 96 270 39 36 27 111 223 301 124
265 254 87 113 158 233 166 191 171 181 192 184 190 186 187 195 177 176 184 178 180 172 174 176 189 176 200 196 220 227 231 225 202 210 123 243 300 282 207 279 31 39 97 122 328 354 293 280 81
168 13 355 344 213 228 154 351 180 188 189 190 189 193 191 195 187 183 183 186 185 172 183 182 190 184 198 233 202 205 287 292 210 225 218 201 216 260 241 230 354 97 283 132 126 1 37 346 283
46 21 311 278 287 178 162 211 238 180 187 192 192 194 192 190 203 182 186 189 188 182 184 187 189 199 197 208 214 213 221 224 208 219 180 136 212 244 188 203 125 285 341 57 189 155 217 163 311
334 338 295 288 282 268 219 102 157 173 186 190 195 190 194 194 193 195 192 188 192 182 187 184 188 196 214 193 239 192 230 213 217 219 121 269 144 234 211 162 162 153 244 110 4 357 23 275 310
302 284 260 245 241 332 347 84 298 162 192 191 192 193 191 190 206 206 191 187 198 186 192 182 181 197 201 204 203 229 205 255 221 207 166 224 171 158 204 185 179 164 305 176 201 55 146 10 1
234 263 270 224 214 194 217 74 243 88 103 174 189 191 184 187 187 208 197 194 192 195 186 183 176 196 202 206 205 207 213 207 227 210 203 279 169 178 151 206 167 201 204 157 345 132 25 140 349
238 282 299 320 322 245 202 57 311 30 84 83 162 178 186 185 175 210 197 196 187 197 187 190 174 193 199 203 204 199 204 206 216 202 254 205 227 155 129 182 217 186 168 210 163 203 252 107 202
243 224 277 300 253 274 137 153 30 47 50 115 135 170 180 188 170 202 200 198 183 192 195 192 184 192 201 201 199 200 199 221 210 213 197 225 243 159 163 185 203 212 174 204 170 221 195 156 220
267 321 255 220 304 290 347 128 169 55 42 29 111 165 172 187 186 187 201 197 187 190 195 195 187 193 200 208 197 203 203 206 224 208 217 219 216 209 187 193 203 213 194 202 212 165 167 192 211
184 226 246 318 328 313 209 76 52 58 60 32 15 45 168 184 191 189 200 200 194 197 196 193 197 196 195 202 197 201 202 204 209 216 209 215 222 207 206 214 208 215 205 206 208 250 130 199 194
292 332 295 246 191 253 312 100 75 50 48 39 29 358 351 177 192 196 188 203 203 200 205 201 192 194 195 199 202 197 208 206 206 214 213 210 213 215 203 212 214 215 214 200 208 219 195 206 202